www.pogodaiklimat.ru

Погода и климат >> Архив погоды >> Мексика >> Felipe Carrillo Puerto


ПОГОДА в Felipe Carrillo Puerto

  • Прогноз погоды в Felipe Carrillo Puerto
  • Монитор погоды в Felipe Carrillo Puerto
  • Климат города

АРХИВ ПОГОДЫ в Felipe Carrillo Puerto

Время (UTC), дата Ветер
(напр.,м/с)
 
Видим.   Явления Облачность Т
(С)
Тd
(С)
f
(%)
Тe
(С)
Тes
(С)
Комфортность P
(гПа)
Po
(гПа)
Тmin
(С)
Tmax
(С)
R
(мм)
R24
(мм)
S
(см)
12 17.04 штиль 0 10 км 1/1 200 м
[Cu med, cong]
+16.3 +15.4 94 +16 +16 1019.5 1018.3 +15.5 +30.2
15 17.04 В 1 10 км 1/1 240 м
[Cu med, cong]
+26.8 +23.6 83 +37 +50 очень
душно
1019.5 1018.3
18 17.04 В 1 10 км 1/1 240 м
[Cu med, cong]
+32.5 +27.1 73 +51 +74 опасность
перегрева
1017.4 1016.3 +15.5 +33.2
12 18.04 штиль 0 10 км 1/1 200 м
[Cu med, cong]
+18.8 +18.2 96 +20 +20 1015.9 1014.7 +18.2 +33.2
15 18.04 В 2 10 км 1/1 240 м
[Cu med, cong]
+28.6 +21.1 64 +36 +47 очень
душно
1016.4 1015.3
18 18.04 В 1 10 км 4/4 240 м
[Cu med, cong]
+33.4 +21.6 50 +41 +57 опасность
перегрева
1015.4 1014.3 +18.2 +34.4
21 18.04 ЮВ 1 10 км 3/3 240 м
[Cu med, cong]
+33.2 +24.0 59 +45 +54 опасность
перегрева
1015.5 1014.3
00 19.04 В 1 10 км 3/3 200 м
[Cu med, cong]
+29.0 +24.1 75 +40 +40 очень
душно
1014.8 1013.7 +18.2 +34.4
12 19.04 В 1 10 км 1/1 200 м
[Cu med, cong]
+24.0 +23.1 95 +32 +32 очень
душно
1016.0 1014.9 +23.1 +34.4
15 19.04 В 2 10 км 4/4 240 м
[Cu med, cong]
+30.0 +23.6 69 +41 +48 опасность
перегрева
1017.4 1016.3
18 19.04 ЮВ 1 10 км {морось} 4/4 200 м
[Cu med, cong]
+31.6 +25.4 70 +46 +61 опасность
перегрева
1017.4 1016.2 0.6
21 19.04 ЮВ 1 10 км 4/4 240 м
[Cu med, cong]
+30.8 +23.9 67 +42 +50 опасность
перегрева
1015.3 1014.2
00 20.04 В 1 10 км 3/3 240 м
[Cu med, cong]
+28.5 +23.1 73 +38 +38 очень
душно
1015.4 1014.2 +32.9
12 20.04 штиль 0 10 км 1/1 200 м
[Cu med, cong]
+21.4 +20.5 95 +27 +27 душно 1017.7 1016.5 +21.0 +32.9
15 20.04 В 2 10 км 1/1 240 м
[Cu med, cong]
+29.0 +20.9 62 +36 +48 очень
душно
1018.3 1017.1
18 20.04 В 1 10 км 3/3 240 м
[Cu med, cong]
+33.4 +19.8 45 +39 +57 опасность
солнечного
удара
1017.1 1015.9 +21.0 +33.9
12 21.04 штиль 0 10 км 1/1 200 м
[Cu med, cong]
+22.8 +21.6 93 +30 +31 очень
душно
1015.1 1014.0 +22.1 +33.9
15 21.04 В 2 10 км 3/3 240 м
[Cu med, cong]
+30.8 +22.6 62 +40 +49 очень
душно
1015.8 1014.7
18 21.04 ЮВ 2 10 км 3/3 240 м
[Cu med, cong]
+34.8 +21.6 46 +43 +58 опасность
перегрева
1014.8 1013.6 +22.1 +35.9
21 21.04 ЮВ 1 10 км 3/3 240 м
[Cu med, cong]
+34.0 +23.0 53 +44 +53 опасность
перегрева
1012.1 1010.9
00 22.04 В 1 10 км 1/1 200 м
[Cu med, cong]
+30.0 +23.0 66 +40 +40 очень
душно
1012.5 1011.4 +22.1 +35.9
12 22.04 штиль 0 10 км 1/1 200 м
[Cu med, cong]
+24.4 +23.5 95 +33 +33 очень
душно
1013.8 1012.6 +23.8 +35.9
15 22.04 В 3 10 км 3/3 240 м
[Cu med, cong]
+30.4 +22.1 61 +39 +46 очень
душно
1014.8 1013.7
18 22.04 В 1 10 км 3/3 240 м
[Cu med, cong]
+35.0 +23.5 51 +46 +64 опасность
перегрева
1014.1 1012.9 +23.8 +36.0
21 22.04 ЮВ 1 10 км 3/3 240 м
[Cu med, cong]
+34.4 +23.2 52 +45 +54 опасность
перегрева
1013.5 1012.3
00 23.04 В 1 10 км 1/1 200 м
[Cu med, cong]
+31.0 +23.2 63 +41 +41 опасность
перегрева
1011.5 1010.4 +23.8 +36.2
12 23.04 штиль 0 10 км 1/1 200 м
[Cu med, cong]
+23.4 +22.5 95 +32 +33 очень
душно
1014.1 1012.9 +22.8 +36.2
15 23.04 В 1 10 км 1/1 240 м
[Cu med, cong]
+29.2 +25.5 80 +43 +56 опасность
перегрева
1015.9 1014.8
18 23.04 В 1 10 км 3/3 240 м
[Cu med, cong]
+35.8 +25.8 56 +51 +69 опасность
перегрева
1014.4 1013.2 +22.8 +36.7

 

Местоположение метеостанции Felipe Carrillo Puerto (Мексика): широта 19.70 долгота -87.90 высота над уровнем моря 12 м.

В архиве по умолчанию представлена погода в Felipe Carrillo Puerto за последнюю неделю. Архивные данные за месяц целиком и за предыдущие месяцы, начиная с января 2011 года, Вы можете получить, выбрав интересующий диапазон дат из раскрывающегося списка и нажав кнопку "Ввод!".


*Определитесь, кто Вы:
робот инопланетянин человек

Внимание! Время в таблицах - всемирное. Для получения местного времени необходимо прибавить поправку, которая в Felipe Carrillo Puerto равна -6 ч.

Смотрите также архив погоды в соседних городах и на ближайших метеорологических станциях:

Погода в Valladolid (Мексика) (113 км)
Погода в Chetumal (Мексика) (142 км)
Погода в Merida (Мексика) (231 км)
Погода в Merida 2 (Мексика) (237 км)
Погода в Belize (Белиз) (245 км)
Погода в Progreso (Мексика) (255 км)
Погода в Campeche (Мексика) (278 км)
Погода в Flores (Гватемала) (373 км)
Погода в Cabo San Antonio (Куба) (390 км)
Погода в Roatan (Гондурас) (404 км)

Пояснения к столбцам:

Ветер - указаны скорость ветра в м/с - средняя за 10 мин, порывы в срок и между сроками (в фигурных скобках) и направление, откуда дует ветер: С - северный, СВ - северо-восточный, В - восточный, ЮВ - юго-восточный, Ю - южный, ЮЗ - юго-западный, З - западный, СЗ - северо-западный.
Видимость - горизонтальная дальность видимости в метрах или километрах. При видимости от 1 до 10 км при отсутствии осадков обычно наблюдается дымка, при ухудшении видимости до 1 км и менее - туман. В сухую погоду видимость может ухудшаться дымом, пылью или мглою.
Явления - указаны атмосферные явления, наблюдавшиеся в срок или в последний час перед сроком; фигурными скобками обозначены явления, наблюдавшиеся между сроками (за 1-3 часа до срока); квадратными скобками обозначены град или гололедные отложения с указанием их диаметра в мм.
Облачность - указаны через наклонную черту общая и нижняя облачность в баллах и высота нижней границы облаков в метрах; квадратными скобками обозначены формы облаков: Ci - перистые, Cs - перисто-слоистые, Cc - перисто-кучевые, Ac - высококучевые, As - высокослоистые, Sc - слоисто-кучевые, Ns - слоисто-дождевые, Cu - кучевые, Cb - кучево-дождевые. Подробнее классификацию облаков см. в Атласе облаков (PDF).
T - Температура воздуха - температура, измеренная на высоте 2 м над землей.
Td - Температура точки росы - температура, при понижении до которой содержащийся в воздухе водяной пар достигнет насыщения.
f - Относительная влажность воздуха - влажноcть воздуха, измеренная на высоте 2 м над землей.
Te - Эффективная температура - температура, которую ощущает одетый по сезону человек в тени. Характеристика душности погоды. При расчете учитывается влияние влажности воздуха и скорости ветра на теплоощущения человека.
Tes - Эффективная температура на солнце - температура, которую ощущает человек, с поправкой на солнечный нагрев. Характеристика знойности погоды. Зависит от высоты солнца над горизонтом, облачности и скорости ветра. Ночью, в пасмурную погоду, а также при ветре 12 м/с и более поправка равна нулю.
P - Атмосферное давление - приведенное к уровню моря атмосферное давление.
Po - Атмосферное давление - измеренное на уровне метеостанции атмосферное давление.
Tmin - Минимальная температура - минимум температуры воздуха на высоте 2 м над землей.
Tmax - Максимальная температура - максимум температуры воздуха на высоте 2 м над землей.
R - Количество осадков - Количество выпавших осадков за период времени, мм. При наведении курсора мыши на число - период времени, за который выпало указанное количество осадков.
R24 - Количество осадков - Количество выпавших осадков за 24 часа, мм.
S - Снежный покров - Высота снежного покрова, см. При наведении курсора мыши на число - состояние снежного покрова и степень покрытия местности в баллах.